Weather History for New Richmond, WI

Change the Weather History Date:

Wednesday, February 27, 2013

  Actual Average (KMSP) Record (KMSP)
Temperature  
Mean Temperature 30 °F 25 °F  
Max Temperature 33 °F 33 °F 54 °F (1896)
Min Temperature 26 °F 18 °F -22 °F (1879)
Degree Days  
Heating Degree Days 36 40  
Month to date heating degree days 1198  
Since 1 July heating degree days 5752  
Cooling Degree Days 0 0  
Month to date cooling degree days 0  
Year to date cooling degree days 0  
Moisture  
Dew Point 25 °F    
Average Humidity 78    
Maximum Humidity 86    
Minimum Humidity 69    
Precipitation  
Precipitation 0.00 in 0.04 in 1.01 in (1981)
Month to date precipitation 0.73  
Year to date precipitation 1.63  
Snow  
Snow 0.00 in 0.30 in 5.50 in (1893)
Month to date snowfall 7.4  
Since 1 July snowfall 41.4  
Snow Depth -    
Sea Level Pressure  
Sea Level Pressure 29.89 in    
Wind  
Wind Speed 12 mph (NNE)    
Max Wind Speed 20 mph    
Max Gust Speed 26 mph    
Visibility 10 miles    
Events      
T = Trace of Precipitation, MM = Missing Value Source: NWS Daily Summary

Daily Weather History Graph

Daily Weather History Graph

Search for Another Location

Airport:

Trip Planner

Search our weather history database for the weather conditions in past years. The results will help you decide how hot, cold, wet, or windy it might be!

Date:

Astronomy

Feb. 27, 2013 Rise Set
Actual Time 6:51 AM CST 5:55 PM CST
Civil Twilight 6:21 AM CST 6:24 PM CST
Nautical Twilight 5:47 AM CST 6:58 PM CST
Astronomical Twilight 5:13 AM CST 7:32 PM CST
Moon 8:26 PM CST (2/27) 7:19 AM CST (2/27)
Length of Visible Light 12h 03m
Length of Day
11h 03m
Waning Gibbous, 96% of the Moon is Illuminated
Feb 27
Waning Gibbous
Mar 4
Last Quarter
Mar 11
New
Mar 19
First Quarter
Mar 27
Full

Hourly Weather History & Observations

Time (CST) Temp. Windchill Dew Point Humidity Pressure Visibility Wind Dir Wind Speed Gust Speed Precip Events Conditions
12:15 AM 30.2 °F 23.4 °F 24.8 °F 80% 29.86 in 10.0 mi NNE 6.9 mph - N/A   Overcast
12:35 AM 30.2 °F 22.6 °F 24.8 °F 80% 29.86 in 10.0 mi NNE 8.1 mph - N/A   Overcast
12:55 AM 30.2 °F 22.6 °F 24.8 °F 80% 29.86 in 10.0 mi NNE 8.1 mph - N/A   Overcast
1:15 AM 30.2 °F 24.3 °F 24.8 °F 80% 29.86 in 10.0 mi NNE 5.8 mph - N/A   Overcast
1:35 AM 30.2 °F 23.4 °F 24.8 °F 80% 29.86 in 10.0 mi NE 6.9 mph - N/A   Overcast
1:55 AM 30.2 °F 21.9 °F 24.8 °F 80% 29.86 in 10.0 mi NE 9.2 mph - N/A   Overcast
2:15 AM 30.2 °F 20.8 °F 24.8 °F 80% 29.86 in 10.0 mi NNE 11.5 mph - N/A   Overcast
2:35 AM 30.2 °F 20.8 °F 23.0 °F 75% 29.86 in 10.0 mi NE 11.5 mph - N/A   Overcast
2:55 AM 30.2 °F 20.8 °F 23.0 °F 75% 29.85 in 10.0 mi NNE 11.5 mph 19.6 mph N/A   Overcast
3:15 AM 30.2 °F 20.2 °F 24.8 °F 80% 29.84 in 10.0 mi NNE 12.7 mph 17.3 mph N/A   Overcast
3:35 AM 30.2 °F 21.3 °F 23.0 °F 75% 29.85 in 10.0 mi NNE 10.4 mph - N/A   Overcast
3:55 AM 30.2 °F 21.3 °F 23.0 °F 75% 29.85 in 10.0 mi NNE 10.4 mph - N/A   Overcast
4:15 AM 30.2 °F 21.9 °F 23.0 °F 75% 29.84 in 10.0 mi NNE 9.2 mph - N/A   Overcast
4:35 AM 30.2 °F 21.3 °F 24.8 °F 80% 29.84 in 10.0 mi NNE 10.4 mph - N/A   Overcast
4:55 AM 30.2 °F 20.2 °F 24.8 °F 80% 29.84 in 10.0 mi NNE 12.7 mph 18.4 mph N/A   Overcast
5:15 AM 30.2 °F 21.3 °F 24.8 °F 80% 29.85 in 10.0 mi NNE 10.4 mph - N/A   Overcast
5:35 AM 30.2 °F 21.9 °F 24.8 °F 80% 29.84 in 10.0 mi NNE 9.2 mph 17.3 mph N/A   Overcast
5:55 AM 30.2 °F 20.8 °F 24.8 °F 80% 29.85 in 10.0 mi NNE 11.5 mph - N/A   Overcast
6:15 AM 30.2 °F 21.3 °F 24.8 °F 80% 29.85 in 10.0 mi NNE 10.4 mph - N/A   Overcast
6:35 AM 30.2 °F 21.9 °F 24.8 °F 80% 29.85 in 10.0 mi NNE 9.2 mph - N/A   Overcast
6:55 AM 30.2 °F 21.9 °F 24.8 °F 80% 29.86 in 10.0 mi North 9.2 mph - N/A   Overcast
7:15 AM 30.2 °F 20.8 °F 24.8 °F 80% 29.86 in 10.0 mi North 11.5 mph - N/A   Overcast
7:35 AM 30.2 °F 21.9 °F 26.6 °F 86% 29.86 in 10.0 mi North 9.2 mph - N/A   Overcast
7:55 AM 30.2 °F 20.8 °F 26.6 °F 86% 29.86 in 10.0 mi North 11.5 mph - N/A   Overcast
8:15 AM 32.0 °F 22.5 °F 26.6 °F 80% 29.86 in 10.0 mi North 12.7 mph - N/A   Overcast
8:35 AM 32.0 °F 22.5 °F 26.6 °F 80% 29.86 in 10.0 mi North 12.7 mph - N/A   Overcast
9:15 AM 32.0 °F 21.6 °F 24.8 °F 75% 29.84 in 10.0 mi North 15.0 mph - N/A   Scattered Clouds
9:35 AM 32.0 °F 20.5 °F 26.6 °F 80% 29.84 in 10.0 mi NNE 18.4 mph 23.0 mph N/A   Scattered Clouds
9:55 AM 32.0 °F 21.6 °F 24.8 °F 75% 29.84 in 10.0 mi North 15.0 mph 24.2 mph N/A   Scattered Clouds
10:15 AM 32.0 °F 20.8 °F 26.6 °F 80% 29.84 in 10.0 mi North 17.3 mph - N/A   Scattered Clouds
10:35 AM 33.8 °F 23.2 °F 26.6 °F 75% 29.84 in 10.0 mi North 17.3 mph - N/A   Scattered Clouds
10:55 AM 32.0 °F 20.8 °F 26.6 °F 80% 29.85 in 10.0 mi North 17.3 mph 23.0 mph N/A   Scattered Clouds
11:15 AM 33.8 °F 24.3 °F 26.6 °F 75% 29.85 in 10.0 mi North 13.8 mph 18.4 mph N/A   Scattered Clouds
11:35 AM 33.8 °F 23.9 °F 26.6 °F 75% 29.85 in 10.0 mi North 15.0 mph 19.6 mph N/A   Scattered Clouds
11:55 AM 33.8 °F 24.3 °F 26.6 °F 75% 29.85 in 10.0 mi North 13.8 mph 18.4 mph N/A   Mostly Cloudy
12:15 PM 33.8 °F 24.8 °F 26.6 °F 75% 29.85 in 10.0 mi NNE 12.7 mph - N/A   Overcast
12:35 PM 33.8 °F 24.3 °F 26.6 °F 75% 29.85 in 10.0 mi North 13.8 mph 19.6 mph N/A   Overcast
12:55 PM 33.8 °F 23.5 °F 26.6 °F 75% 29.86 in 10.0 mi NNE 16.1 mph - N/A   Overcast
1:15 PM 33.8 °F 24.3 °F 26.6 °F 75% 29.86 in 10.0 mi North 13.8 mph - N/A   Overcast
1:35 PM 33.8 °F 23.2 °F 26.6 °F 75% 29.86 in 10.0 mi North 17.3 mph - N/A   Overcast
1:55 PM 33.8 °F 23.2 °F 26.6 °F 75% 29.85 in 10.0 mi North 17.3 mph 21.9 mph N/A   Overcast
2:15 PM 33.8 °F 23.9 °F 26.6 °F 75% 29.86 in 10.0 mi North 15.0 mph - N/A   Overcast
2:35 PM 33.8 °F 23.9 °F 26.6 °F 75% 29.87 in 10.0 mi North 15.0 mph - N/A   Overcast
2:55 PM 33.8 °F 23.2 °F 26.6 °F 75% 29.87 in 10.0 mi North 17.3 mph 24.2 mph N/A   Overcast
3:15 PM 32.0 °F 20.1 °F 26.6 °F 80% 29.88 in 10.0 mi North 19.6 mph 24.2 mph N/A   Overcast
3:35 PM 32.0 °F 20.1 °F 26.6 °F 80% 29.88 in 10.0 mi North 19.6 mph 24.2 mph N/A   Overcast
3:55 PM 32.0 °F 20.5 °F 26.6 °F 80% 29.89 in 10.0 mi North 18.4 mph - N/A   Overcast
4:15 PM 32.0 °F 21.2 °F 26.6 °F 80% 29.89 in 10.0 mi North 16.1 mph 24.2 mph N/A   Overcast
4:35 PM 32.0 °F 20.1 °F 26.6 °F 80% 29.90 in 10.0 mi North 19.6 mph 25.3 mph N/A   Overcast
4:55 PM 32.0 °F 20.1 °F 26.6 °F 80% 29.90 in 10.0 mi NNE 19.6 mph 26.5 mph N/A   Overcast
5:15 PM 30.2 °F 18.9 °F 24.8 °F 80% 29.92 in 10.0 mi NNE 16.1 mph 26.5 mph N/A   Overcast
5:35 PM 30.2 °F 18.5 °F 26.6 °F 86% 29.93 in 10.0 mi NNE 17.3 mph 23.0 mph N/A   Overcast
5:55 PM 30.2 °F 18.5 °F 26.6 °F 86% 29.93 in 10.0 mi North 17.3 mph - N/A   Overcast
6:15 PM 30.2 °F 17.8 °F 24.8 °F 80% 29.94 in 10.0 mi NNE 19.6 mph 24.2 mph N/A   Overcast
6:35 PM 30.2 °F 20.2 °F 24.8 °F 80% 29.95 in 10.0 mi NNE 12.7 mph 24.2 mph N/A   Overcast
6:55 PM 30.2 °F 18.5 °F 24.8 °F 80% 29.95 in 10.0 mi NNE 17.3 mph 23.0 mph N/A   Overcast
7:15 PM 30.2 °F 18.9 °F 24.8 °F 80% 29.96 in 10.0 mi NNE 16.1 mph - N/A   Overcast
7:35 PM 30.2 °F 19.3 °F 24.8 °F 80% 29.96 in 10.0 mi NNE 15.0 mph 21.9 mph N/A   Overcast
7:55 PM 32.0 °F 21.2 °F 26.6 °F 80% 29.96 in 10.0 mi NNE 16.1 mph 20.7 mph N/A   Overcast
8:15 PM 32.0 °F 21.2 °F 24.8 °F 75% 29.96 in 10.0 mi NNE 16.1 mph 20.7 mph N/A   Overcast
8:35 PM 32.0 °F 21.6 °F 24.8 °F 75% 29.96 in 10.0 mi NNE 15.0 mph 25.3 mph N/A   Overcast
8:55 PM 32.0 °F 22.5 °F 23.0 °F 69% 29.97 in 10.0 mi NNE 12.7 mph - N/A   Mostly Cloudy
9:15 PM 30.2 °F 20.8 °F 23.0 °F 75% 29.97 in 10.0 mi North 11.5 mph - N/A   Scattered Clouds
9:35 PM 30.2 °F 21.9 °F 23.0 °F 75% 29.98 in 10.0 mi North 9.2 mph - N/A   Clear
9:55 PM 30.2 °F 21.9 °F 21.2 °F 69% 29.98 in 10.0 mi North 9.2 mph - N/A   Clear
10:15 PM 28.4 °F 20.4 °F 21.2 °F 74% 29.98 in 10.0 mi NNW 8.1 mph - N/A   Scattered Clouds
10:35 PM 26.6 °F 18.2 °F 21.2 °F 80% 29.99 in 10.0 mi NNW 8.1 mph - N/A   Clear
10:55 PM 26.6 °F 18.2 °F 21.2 °F 80% 29.99 in 10.0 mi NNW 8.1 mph - N/A   Scattered Clouds
11:15 PM 26.6 °F 18.2 °F 21.2 °F 80% 29.99 in 10.0 mi NNW 8.1 mph - N/A   Overcast
11:55 PM 26.6 °F 18.2 °F 23.0 °F 86% 29.99 in 10.0 mi NNW 8.1 mph - N/A   Overcast